Orbital Elements at Epoch 2459200.5 (2020-Dec-17.0) TDB
Reference: JPL 16 (heliocentric ecliptic J2000)
Element | Value | Uncertainty (1-sigma) | Units |
e | .1567209212534352 | 4.0002e-08 | |
a | 2.351575037237069 | 1.1682e-08 | au |
q | 1.983034031004695 | 9.2445e-08 | au |
i | 3.688564922535157 | 4.3491e-06 | deg |
node | 259.6510508735861 | 9.8161e-05 | deg |
peri | 352.3190529564304 | 0.00010063 | deg |
M | 200.4904230886662 | 2.4965e-05 | deg |
tp | 2459784.107616667288 (2022-Jul-23.60761667) | 9.3145e-05 | TDB |
period | 1317.15440582612 3.61 | 9.8151e-06 2.687e-08 | d yr |
n | .2733164755837474 | 2.0367e-09 | deg/d |
Q | 2.720116043469444 | 1.3513e-08 | au |
|
| | Orbit Determination Parameters
Additional Information
|